Flag for United Kingdom Weather past 2 weeks in Londonderry, Northern Ireland, United Kingdom

Now
37 °F

Chilly.


Feels Like: 37 °F
Forecast: 39 / 62 °F
Wind: 2 mph from Northwest

Location: Castlederg


UV Index: 3 (Moderate)

Visibility: 7 mi


Pressure: 30.21 "Hg

Humidity: 97%

Dew point: 36 °F

Location of LondonderryLocation

Historic Weather in Londonderry

°F

Londonderry temperature yesterday

Maximum temperature yesterday: 53 °F (at 2:00 PM)
Minimum temperature yesterday: 46 °F (at 8:00 AM)
Average temperature yesterday: 49 °F

Past Weeks' High & Low Weather Summary

 TemperatureHumidityPressure
High61 °F (Apr 15, 3:00 PM)100% (Apr 3, 3:00 AM)30.37 "Hg (Apr 3, 3:00 AM)
Low30 °F (Apr 15, 7:00 AM)51% (Apr 12, 3:00 PM)29.29 "Hg (Apr 6, 9:00 AM)
Average49 °F82%29.91 "Hg
* Reported Apr 3 1:00 AM — Apr 18 1:00 AM, Londonderry, Weather by CustomWeather, © 2014

Note: Actual official high and low records may vary slightly from our data, if they occured in-between our weather recording intervals... More about our weather records

Advertising

Historic Weather Conditions — Data for Previous 24 hours

 ConditionsComfort  
Time TempWeatherWind HumidityBarometerVisibility
1:00 AM
Apr 18
37 °FChilly.2 mph97%30.21 "Hg7 mi
5:00 PM
Apr 17
50 °FCool.7 mph74%30.14 "Hg16 mi
4:00 PM51 °FCool.10 mph82%30.13 "Hg25 mi
3:00 PM51 °FCool.12 mph89%30.12 "Hg4 mi
2:00 PM53 °FCool.16 mph76%30.11 "Hg22 mi
1:00 PM52 °FCool.16 mph80%30.10 "Hg19 mi
12:00 PM51 °FRain showers. Cloudy.17 mph82%30.10 "Hg18 mi
11:00 AM50 °FCool.13 mph81%30.09 "Hg19 mi
10:00 AM47 °FCool.9 mph92%30.10 "Hg17 mi
9:00 AM47 °FSmoke.10 mph89%30.09 "Hg4 mi
8:00 AM46 °FCool.13 mph86%30.08 "Hg7 mi
7:00 AM47 °FCool.13 mph80%30.07 "Hg16 mi
6:00 AM47 °FCool.10 mph79%30.07 "Hg16 mi
5:00 AM47 °FCool.8 mph84%30.06 "Hg22 mi
4:00 AM47 °FCool.13 mph80%30.06 "Hg22 mi
3:00 AM47 °FCool.9 mph87%30.07 "Hg28 mi
2:00 AM49 °FCool.12 mph94%30.07 "Hg7 mi
Weather by CustomWeather, © 2014

See weather overview